Location: Cisewo
(53.3833°N, 14.9000°E)
Time: 12:28:24
(UTC+00:00)

Cosmos 2237 Rocket - Pass Details

Date: 18 April 2021
Orbit: 836 x 848 km, 71.0° (Epoch: 16 May)

Event Time Altitude Azimuth Distance (km) Brightness Sun altitude
Rises 19:32:50 0° 327° (NNW) 3,409 6.9 -12.0°
Reaches altitude 10° 19:35:17 10° 328° (NNW) 2,468 5.9 -12.3°
Maximum altitude 19:40:58 90° 37° (NE) 846 2.2 -12.9°
Enters shadow 19:45:21 17° 150° (SSE) 1,979 3.5 -13.4°
